Showing default

DSX, 44344

Orbit data source: Space-Track

DSX, 44344 is a payload satellite owned by AFRL/RV (US) that was launched on Tue, 25 Jun 2019 UTC via an FALCON HEAVY launch vehicle from the Air Force Eastern Test Range (AFETR). Payload-class satellites include a variety of spacecraft equipped with specific instruments for various scientific and technological missions. These include communications satellites like Starlink; space stations such as the ISS; scientific satellites like the Hubble; Earth observation satellites from companies like Planet Labs, Umbra, and HawkEye 360; GPS; miniature CubeSats for education and research; and military/defense satellites.

Loading next visibility...
Identifier
44344, 2019-036F
Orbit
Active
Last TLE update
1 day ago
Origin
Manufacturer
MicrosatSystems
Mission
Operational Defense Technology
Bus & Motor
ESPA, Unknown motor
Mass
668 kg wet, 668 kg dry
Launch date (UTC)
2019-06-25 (6 years ago)
Launch vehicle
FALCON HEAVY
Launch site
Air Force Eastern Test Range (AFETR)
Object type
Payload
Rocket body
Debris
Shape & HBR
Irr + 1 Ant, 54 m
Radar Cross Section
11.357 m², Large (>1 m²)

Expand to show TLE details & history

TLE from 1 day ago
0 DSX
1 44344U 19036F   25181.14184386 -.00000007  00000-0  00000-0 0  9998
2 44344  42.2164 119.4344 1958389 224.6349 117.8770  4.54374809 99798
Epoch: 2025-06-30T03:24Z
TLE epoch observation values (Epoch: 2025-06-30T03:24:15.309Z)
Latitude
0.00005°
Longitude
149.91038°
Altitude
10,829.958 km
Speed
4.522 km/s
True Right ascension
07h 57m 43s
True Declination
0° 00' 00"
Sunlit
Object was in daylight at epoch
Visualization orbit readout
Latitude
-19.78461°
Longitude
126.14506°
Altitude
9,208.829 km
Speed
5.027 km/s
Apparent Right ascension
07h 16m 25s
Apparent Declination
-27° 41' 25"
Sunlit
Object is in daylight
Visualization observer readout
Local Sidereal Time
22:12:52
Azimuth
85.222° E
Elevation
-51.792°
Doppler factor
1
Orbital elements
Apogee altitude
12,036.347 km
Perigee altitude
6,004.979 km
Semi-major axis
15,398.8 km
Eccentricity
0.19584
Inclination
42.2164°
RAAN
119.4344°
Arg. of periapsis
224.6349°
True anomaly
Unknown
Mean anomaly
117.877°
Eccentric anomaly
Unknown
Mean motion
1.13583 °/min
Orbital period
316.95 mins
BSTAR
0
Loading maneuver chart data...
Loading SW <> Apogee altitude chart data...
Loading historical data...
Loading historical data...
Loading historical data...
Loading historical data...
Loading historical data...
Loading historical data...
Loading historical data...

DSX Visibility forecast

Observer location: undefined°, undefined°

Span
Click to sort rows by Start time (UTC) header in descending order
Start Az.
Max El. time (UTC)
Max El. Az.
Max El.
End time (UTC)
End Az.
158 mins2025-07-01 21:22:24.523Z214.058° SW2025-07-01 22:44:24.523Z138.655° SSE44.097°2025-07-02 00:00:24.523Z69.932° E
124 mins2025-07-02 03:58:24.523Z286.873° WNW2025-07-02 05:19:24.523Z216.772° SW44.386°2025-07-02 06:02:24.523Z134.93° SE
|